Regional Weather Roundup
Issued by NWS

Home | Current Version | Previous Version | Graphics & Text | Print | Product List | Glossary On
Versions: 1 2 3 4 5 6 7 8 9 10 11 12 13 14 15 16 17 18 19 20 21 22 23 24 25 26 27 28 29 30 31 32 33 34 35 36 37 38 39 40 41 42 43 44 45 46 47 48 49 50
000
ASUS43 KOAX 251502
RWRNE

WEATHER ROUNDUP FOR NEBRASKA
NATIONAL WEATHER SERVICE OMAHA NE
900 AM CST SAT FEB 25 2017

NOTES: SATELLITE DATA IS BEING USED TO AUGMENT CLOUD COVER ABOVE
       12000 FEET.
       "FAIR" INDICATES FEW OR NO CLOUDS BELOW 12,000 FEET WITH NO
       SIGNIFICANT WEATHER AND/OR OBSTRUCTIONS TO VISIBILITY.

  * THESE STATIONS DO NOT REPORT WEATHER SUCH AS RAIN...SNOW OR FOG.

NEZ001>004-019>022-054>056-251600-
NEBRASKA PANHANDLE

CITY           SKY/WX    TMP DP  RH WIND       PRES   REMARKS
SCOTTSBLUFF    CLOUDY     4  -1  80 NW10      29.97S WCI -11
ALLIANCE       CLOUDY     1  -3  83 W10       29.92S WCI -15
CHADRON        SUNNY     10   6  84 SW5       29.96S WCI   2
KIMBALL        SUNNY     17  10  72 W15       29.94S WCI   3
SIDNEY         SUNNY     15   7  70 W16       29.95S WCI  -1
$$

NEZ057>060-069>072-079>082-251600-
SOUTHWEST NEBRASKA

CITY           SKY/WX    TMP DP  RH WIND       PRES   REMARKS
NORTH PLATTE   SUNNY     13  10  88 CALM      30.03S
IMPERIAL       SUNNY     15  12  88 W10       30.01F WCI   2
LEXINGTON      SUNNY     16  11  80 CALM      30.08S
MCCOOK         SUNNY     16  14  92 SW5       30.08S WCI   9
OGALLALA       SUNNY     11   8  88 W3        30.00S
$$

NEZ005>010-023>029-035>040-094-251600-
NORTH CENTRAL NEBRASKA

CITY           SKY/WX    TMP DP  RH WIND       PRES   REMARKS
VALENTINE      CLOUDY     1  -3  83 SW6       29.96F WCI -10
AINSWORTH      CLOUDY    14  11  89 SW12      29.97F WCI   1
BROKEN BOW     CLOUDY    14   9  80 SW7       30.03F WCI   4
O`NEILL        CLOUDY    11   7  85 SW8       30.04F WCI  -1
ORD            CLOUDY     7   3  84 CALM      30.07S
THEDFORD       LGT SNOW   8   5  89 CALM      29.98F
$$

NEZ041-046>049-061>064-073>077-083>087-251600-
SOUTH CENTRAL NEBRASKA

CITY           SKY/WX    TMP DP  RH WIND       PRES   REMARKS
GRAND ISLAND   CLOUDY    17  11  77 SW5       30.12R WCI  10
AURORA         CLOUDY    15  11  83 W3        30.12S
HASTINGS       SUNNY     15   9  76 W5        30.12F WCI   8
HEBRON         CLOUDY    18  12  79 W7        30.17S WCI   8
HOLDREGE       SUNNY     19  12  72 W8        30.09F WCI   9
KEARNEY *      SUNNY     18   9  68 SW9       30.10F WCI   6
YORK           CLOUDY    14  10  85 W7        30.13S WCI   4
$$

NEZ011>018-030>034-042>045-251600-
NORTHEAST NEBRASKA

CITY           SKY/WX    TMP DP  RH WIND       PRES   REMARKS
NORFOLK        CLOUDY    14   8  77 W6        30.08S WCI   5
ALBION         CLOUDY    11   5  77 CALM      30.10R
BLAIR          CLOUDY    17  13  84 NW3       30.11R
FREMONT        CLOUDY    17  12  83 W6        30.13S WCI   8
TEKAMAH        CLOUDY    17  10  74 NW9       30.13R WCI   6
WAYNE          CLOUDY    15  11  83 SW3       30.08S
$$

NEZ050>053-065>068-078-088>093-251600-
SOUTHEAST NEBRASKA

CITY           SKY/WX    TMP DP  RH WIND       PRES   REMARKS
LINCOLN        CLOUDY    18  11  74 W6        30.17R WCI  10
OMAHA EPPLEY   CLOUDY    20  12  71 NW7       30.15R WCI  11
BEATRICE       CLOUDY    20  15  81 W7        30.17R WCI  11
FALLS CITY     SUNNY     22  15  75 NW13      30.17R WCI  10
NEBRASKA CITY  SUNNY     21  13  73 NW10      30.15R WCI   9
PLATTSMOUTH    MOSUNNY   20  13  73 W7        30.14R WCI  11
$$

NEZ044-045-051>053-067-251600-
OMAHA AREA

CITY           SKY/WX    TMP DP  RH WIND       PRES   REMARKS
OMAHA EPPLEY   CLOUDY    20  12  71 NW7       30.15R WCI  11
BLAIR          CLOUDY    17  13  84 NW3       30.11R
FREMONT        CLOUDY    17  12  83 W6        30.13S WCI   8
MILLARD        CLOUDY    23  16  74 NW6       30.15R WCI  15
OFFUTT AFB     CLOUDY    20  13  74 NW6       30.15R WCI  12
PLATTSMOUTH    MOSUNNY   20  13  73 W7        30.14R WCI  11
WAHOO          FAIR      18  12  77 W6        30.13S WCI  10
$$




USA.gov is the U.S. government's official web portal to all federal, state and local government web resources and services.